RH
17 18 18 18 16 15 16 16 16 16 17 18 19 20 22 24 25 27 29 30 35 60 69 70 78 85 78
17 19 18 19 18 17 17 17 16 16 18 18 20 21 22 24 27 28 32 32 36 54 76 82 86 89 91
17 17 18 18 17 16 15 16 15 16 18 20 21 22 23 26 28 30 33 34 36 47 86 76 87 93 94
16 16 17 16 16 16 16 17 16 17 20 21 21 23 24 28 29 32 35 34 37 49 79 71 88 95 93
14 14 14 13 13 15 15 17 17 18 19 21 23 24 26 28 31 34 36 36 40 55 64 75 93 95 91
14 13 14 15 15 15 17 18 16 19 22 25 26 26 26 29 32 35 37 38 41 50 64 89 95 96 87
19 16 16 16 18 19 19 20 20 22 24 24 24 26 29 31 33 34 37 40 43 58 80 93 96 95 87
19 19 22 23 22 21 22 21 21 21 21 22 25 27 30 32 35 36 38 42 47 64 87 96 97 96 85
21 20 20 21 19 18 18 18 17 19 22 24 26 28 30 33 34 36 40 45 51 66 91 96 96 96 85
19 18 18 17 17 17 20 20 22 23 24 24 26 27 28 32 34 37 43 49 57 89 94 94 97 95 86
23 22 21 20 20 22 23 24 25 26 26 25 26 28 29 34 36 40 47 55 74 94 94 95 97 94 84
35 26 23 23 24 24 25 26 25 25 26 25 28 30 33 36 37 44 55 69 98 96 95 97 98 90 81
59 42 34 28 30 28 26 27 27 28 28 27 29 31 34 37 40 51 65 96 98 98 96 97 95 86 80
76 76 67 43 27 29 30 30 32 31 29 31 32 34 38 40 42 58 95 96 96 97 98 97 92 85 81
62 51 84 69 36 34 34 34 34 32 34 39 40 41 44 48 70 92 97 96 96 96 97 94 90 88 83
58 56 83 85 45 33 33 32 33 34 45 65 70 67 62 83 96 96 96 96 96 97 96 96 92 90 84
77 75 72 91 60 37 35 35 44 64 92 98 100 95 97 97 97 96 96 96 96 96 96 96 94 90 81
Wind_Speed
28 27 26 25 22 21 20 18 17 17 16 15 16 16 16 17 19 21 23 24 25 28 29 33 34 33 32
31 31 30 26 25 23 22 21 20 19 18 16 17 17 17 19 20 23 24 25 25 27 31 38 39 35 33
31 32 32 30 28 27 24 23 21 19 17 17 18 18 19 20 21 23 25 26 27 27 33 41 41 34 30
33 35 33 31 29 27 25 23 20 18 18 18 19 19 21 21 23 24 26 27 28 28 35 43 40 31 31
34 33 31 30 25 24 23 22 21 20 20 19 19 21 22 23 24 25 27 28 28 31 37 44 36 29 31
31 30 26 25 22 21 21 24 21 18 18 19 21 22 23 24 25 26 28 27 29 32 40 38 34 31 31
28 26 23 21 22 21 22 22 22 21 23 24 23 22 24 25 27 27 28 28 29 32 41 37 31 30 30
29 30 27 27 26 26 27 26 26 26 26 23 23 23 26 26 26 27 28 28 30 34 38 33 29 30 30
37 38 38 37 35 35 30 28 25 22 22 22 23 24 27 27 27 26 28 28 30 37 34 32 29 30 30
39 39 37 34 32 28 26 25 25 25 23 26 24 26 28 27 27 26 28 29 30 37 32 32 28 28 29
38 37 35 31 29 26 26 26 26 25 25 28 26 26 28 27 26 26 27 29 33 34 30 30 28 28 28
35 37 35 32 31 30 30 29 30 28 28 28 25 26 29 28 26 26 27 31 32 30 30 26 27 28 29
34 33 31 32 34 35 34 31 31 30 29 29 28 28 29 28 26 27 30 30 31 29 26 25 27 28 29
29 30 30 32 36 36 35 34 34 32 31 30 30 29 29 28 29 30 30 29 29 27 26 25 27 28 29
34 32 32 33 35 36 36 36 34 32 31 30 30 30 30 30 32 32 27 28 27 26 26 27 28 29 29
35 33 34 31 32 34 35 34 33 32 30 30 32 32 33 35 31 27 27 27 26 25 26 27 29 29 28
34 35 34 31 32 32 32 32 32 31 27 28 31 36 33 31 28 25 27 27 26 25 25 26 28 29 29
Wind_Direction
203 212 216 219 220 221 226 229 234 243 252 264 276 288 300 308 311 315 317 321 325 333 340 340 335 332 332
200 204 210 213 217 221 224 229 235 244 253 263 274 286 296 301 309 309 314 317 319 325 332 339 335 328 327
202 207 208 212 218 223 227 230 238 246 256 265 274 284 293 297 302 305 309 312 315 319 327 336 335 329 326
206 210 213 217 220 225 229 234 241 248 254 263 273 283 288 294 298 301 305 309 313 315 322 332 331 326 326
213 216 218 223 226 229 233 237 242 246 251 263 272 278 285 291 294 298 301 307 311 310 322 329 328 325 326
218 222 222 227 229 231 232 236 244 256 258 260 267 275 283 287 290 295 299 306 307 311 323 328 328 323 325
222 223 224 228 228 227 231 236 241 245 250 256 267 275 279 283 288 295 299 304 303 311 325 325 323 321 324
207 203 211 217 217 221 224 229 235 241 251 262 269 273 277 282 287 292 297 301 302 312 322 323 321 320 324
208 210 210 212 216 221 228 238 247 253 258 262 265 270 276 279 285 293 297 298 301 311 318 320 318 318 323
214 219 224 227 229 233 231 237 244 248 254 261 262 268 275 281 287 293 295 297 299 310 312 316 314 317 322
223 224 228 229 230 231 237 242 245 248 253 261 266 271 277 282 285 291 292 295 298 308 310 312 313 316 321
224 227 229 229 233 236 238 241 246 251 258 266 267 270 274 278 286 289 287 293 300 305 309 310 311 315 319
221 225 229 230 232 235 238 241 247 254 260 264 265 266 271 278 281 281 286 297 299 306 308 308 311 315 320
227 228 229 231 232 233 237 241 248 254 258 262 267 268 272 276 279 283 294 293 299 303 304 307 309 315 319
229 227 230 234 236 235 238 244 250 255 259 263 266 267 269 273 277 286 286 291 298 300 304 305 309 313 318
232 235 233 237 240 241 243 247 252 256 259 264 266 267 269 275 280 280 282 291 295 298 300 303 309 313 320
239 242 235 239 242 243 245 250 250 253 264 272 271 265 270 275 273 271 284 292 292 294 298 303 308 314 318